START_TIME,STEP,MOV.,H8,t_acc.,H43,t_acc.,M25,t_acc.,H9,t_acc.
1979-07-15 12:00:29.720 ,0,0,0.,12.0,0.,12.0,0.,12.0,0.,12.0
1979-07-15 12:00:41.720 ,0,0,0.,12.0,0.,12.0,0.,12.0,0.,12.0
1979-07-15 12:00:53.720 ,1,0,0.,12.0,0.,12.0,0.,12.0,0.,12.0
1979-07-15 12:01:05.720 ,1,0,0.,12.0,0.,12.0,0.,12.0,0.,12.0
1979-07-15 12:01:17.720 ,1,0,0.,12.0,0.,12.0,0.,12.0,0.,12.0
1979-07-15 12:01:29.720 ,1,0,0.,12.0,0.,12.0,0.,12.0,0.,12.0
1979-07-15 12:01:41.720 ,2,0,0.,12.0,0.,12.0,0.,12.0,0.,12.0
1979-07-15 12:01:53.720 ,2,0,0.,12.0,0.,12.0,0.,12.0,0.,12.0
1979-07-15 12:02:05.720 ,2,0,0.,12.0,0.,12.0,0.,12.0,0.,12.0
1979-07-15 12:02:17.720 ,2,0,0.,12.0,0.,12.0,0.,12.0,0.,12.0
1979-07-15 12:02:29.720 ,3,0,0.,12.0,0.,12.0,0.,12.0,0.,12.0
1979-07-15 12:02:41.720 ,3,0,0.,12.0,0.,12.0,0.,12.0,0.,12.0
1979-07-15 12:02:53.720 ,3,0,0.,12.0,0.,12.0,0.,12.0,0.,12.0
1979-07-15 12:03:05.720 ,3,0,0.,12.0,0.,12.0,0.,12.0,0.,12.0
1979-07-15 12:03:17.720 ,4,0,0.,12.0,0.,12.0,0.,12.0,0.,12.0
1979-07-15 12:03:29.720 ,4,0,0.,12.0,0.,12.0,0.,12.0,0.,12.0
1979-07-15 12:03:41.720 ,4,0,0.,12.0,0.,12.0,0.,12.0,0.,12.0
1979-07-15 12:03:53.720 ,4,0,0.,12.0,0.,12.0,0.,12.0,0.,12.0
1979-07-15 12:04:05.720 ,5,0,0.,12.0,0.,12.0,0.,12.0,0.,12.0
1979-07-15 12:04:17.720 ,5,0,0.,12.0,0.,12.0,0.,12.0,0.,12.0
1979-07-15 12:04:29.720 ,5,0,0.,12.0,0.,12.0,0.,12.0,0.,12.0
1979-07-15 12:04:41.720 ,5,0,0.,12.0,0.,12.0,0.,12.0,0.,12.0
1979-07-15 12:04:53.720 ,6,0,0.,12.0,0.,12.0,0.,12.0,0.,12.0
1979-07-15 12:05:05.720 ,6,0,0.,12.0,0.,12.0,0.,12.0,0.,12.0
1979-07-15 12:05:17.720 ,6,0,0.,12.0,0.,12.0,0.,12.0,0.,12.0
1979-07-15 12:05:29.720 ,6,0,0.,12.0,0.,12.0,0.,12.0,0.,12.0
1979-07-15 12:05:41.720 ,7,0,0.,12.0,0.,12.0,0.,12.0,0.,12.0
1979-07-15 12:05:53.720 ,7,0,0.,12.0,0.,12.0,0.,12.0,0.,12.0
1979-07-15 12:06:05.720 ,7,0,0.,12.0,0.,12.0,0.,12.0,0.,12.0
1979-07-15 12:06:17.720 ,7,0,0.,12.0,0.,12.0,0.,12.0,0.,12.0
1979-07-15 12:06:29.720 ,7,0,0.,12.0,0.,12.0,0.,12.0,0.,12.0
1979-07-15 12:06:41.720 ,7,0,0.,12.0,0.,12.0,0.,12.0,0.,12.0
1979-07-15 12:06:53.720 ,7,0,0.,12.0,0.,12.0,0.,12.0,0.,12.0
1979-07-15 12:07:05.720 ,7,0,0.,12.0,0.,12.0,0.,12.0,0.,12.0
1979-07-15 12:07:17.720 ,6,0,0.,12.0,0.,12.0,0.,12.0,0.,12.0
1979-07-15 12:07:29.720 ,6,0,0.,12.0,0.,12.0,0.,12.0,0.,12.0
1979-07-15 12:07:41.720 ,6,0,0.,12.0,0.,12.0,0.,12.0,0.,12.0
1979-07-15 12:07:53.720 ,6,0,0.,12.0,0.,12.0,0.,12.0,0.,12.0
1979-07-15 12:07:41.720 ,6,0,0.,12.0,0.,12.0,0.,12.0,0.,12.0
1979-07-15 12:07:53.720 ,6,0,0.,12.0,0.,12.0,0.,12.0,0.,12.0
1979-07-15 12:08:05.720 ,5,0,0.,12.0,0.,12.0,0.,12.0,0.,12.0
1979-07-15 12:08:17.720 ,5,0,0.,12.0,0.,12.0,0.,12.0,0.,12.0
1979-07-15 12:08:29.720 ,5,0,0.,12.0,0.,12.0,0.,12.0,0.,12.0
1979-07-15 12:08:41.720 ,5,0,0.,12.0,0.,12.0,0.,12.0,0.,12.0
1979-07-15 12:08:53.720 ,4,0,0.,12.0,0.,12.0,0.,12.0,0.,12.0
1979-07-15 12:09:05.720 ,4,0,0.,12.0,0.,12.0,0.,12.0,0.,12.0
1979-07-15 12:09:17.720 ,4,0,0.,12.0,0.,12.0,0.,12.0,0.,12.0
1979-07-15 12:09:29.720 ,4,0,1.,12.0,0.,12.0,0.,12.0,0.,12.0
1979-07-15 12:09:41.720 ,3,0,0.,12.0,0.,12.0,0.,12.0,0.,12.0
1979-07-15 12:09:53.720 ,3,0,0.,12.0,0.,12.0,0.,12.0,0.,12.0
1979-07-15 12:10:05.720 ,3,0,0.,12.0,0.,12.0,0.,12.0,0.,12.0
1979-07-15 12:10:17.720 ,3,0,0.,12.0,0.,12.0,0.,12.0,0.,12.0
1979-07-15 12:10:29.720 ,2,0,0.,12.0,0.,12.0,0.,12.0,0.,12.0
1979-07-15 12:10:41.720 ,2,0,0.,12.0,0.,12.0,0.,12.0,0.,12.0
1979-07-15 12:10:53.720 ,2,0,0.,12.0,0.,12.0,0.,12.0,0.,12.0
1979-07-15 12:11:05.720 ,2,0,0.,12.0,0.,12.0,0.,12.0,0.,12.0
1979-07-15 12:11:17.720 ,1,0,0.,12.0,0.,12.0,0.,12.0,0.,12.0
1979-07-15 12:11:29.720 ,1,0,0.,12.0,0.,12.0,0.,12.0,0.,12.0
1979-07-15 12:11:41.720 ,1,0,0.,12.0,0.,12.0,0.,12.0,0.,12.0
1979-07-15 12:11:53.720 ,1,0,0.,12.0,0.,12.0,0.,12.0,0.,12.0
1979-07-15 12:12:05.720 ,0,0,0.,12.0,0.,12.0,0.,12.0,0.,12.0
1979-07-15 12:12:17.720 ,0,0,0.,12.0,0.,12.0,0.,12.0,0.,12.0
1979-07-15 12:12:29.720 ,0,0,0.,12.0,0.,12.0,0.,12.0,0.,12.0
1979-07-15 12:12:41.720 ,0,0,0.,12.0,0.,12.0,0.,12.0,0.,12.0
1979-07-15 12:12:53.720 ,0,0,0.,12.0,0.,12.0,0.,12.0,0.,12.0
1979-07-15 12:13:05.720 ,0,0,0.,12.0,0.,12.0,0.,12.0,0.,12.0
1979-07-15 12:13:17.720 ,0,0,0.,12.0,0.,12.0,0.,12.0,0.,12.0
1979-07-15 12:13:29.720 ,0,0,0.,12.0,0.,12.0,0.,12.0,0.,12.0
1979-07-15 12:13:41.720 ,1,0,0.,12.0,0.,12.0,0.,12.0,0.,12.0
1979-07-15 12:13:53.720 ,1,0,0.,12.0,0.,12.0,0.,12.0,0.,12.0
1979-07-15 12:14:05.720 ,1,0,0.,12.0,0.,12.0,0.,12.0,0.,12.0
1979-07-15 12:14:17.720 ,1,0,0.,12.0,0.,12.0,0.,12.0,0.,12.0
1979-07-15 12:14:29.720 ,2,0,0.,12.0,0.,12.0,0.,12.0,0.,12.0
1979-07-15 12:14:41.720 ,2,0,0.,12.0,0.,12.0,0.,12.0,0.,12.0
1979-07-15 12:14:53.720 ,2,0,0.,12.0,0.,12.0,0.,12.0,0.,12.0
1979-07-15 12:15:05.720 ,2,0,0.,12.0,0.,12.0,0.,12.0,0.,12.0
1979-07-15 12:15:17.720 ,3,0,0.,12.0,0.,12.0,0.,12.0,0.,12.0
1979-07-15 12:15:29.720 ,3,0,0.,12.0,0.,12.0,0.,12.0,0.,12.0
1979-07-15 12:15:41.720 ,3,0,0.,12.0,0.,12.0,0.,12.0,0.,12.0
1979-07-15 12:15:53.720 ,3,0,0.,12.0,0.,12.0,0.,12.0,0.,12.0
1979-07-15 12:16:05.720 ,4,0,0.,12.0,0.,12.0,0.,12.0,0.,12.0
1979-07-15 12:16:17.720 ,4,0,0.,12.0,0.,12.0,0.,12.0,0.,12.0
1979-07-15 12:16:29.720 ,4,0,0.,12.0,0.,12.0,0.,12.0,0.,12.0
1979-07-15 12:16:41.720 ,4,0,0.,12.0,0.,12.0,0.,12.0,0.,12.0
1979-07-15 12:16:53.720 ,5,0,0.,12.0,0.,12.0,0.,12.0,0.,12.0
1979-07-15 12:17:05.720 ,5,0,0.,12.0,0.,12.0,0.,12.0,0.,12.0
1979-07-15 12:17:17.720 ,5,0,0.,12.0,0.,12.0,0.,12.0,0.,12.0
1979-07-15 12:17:29.720 ,5,0,0.,12.0,0.,12.0,0.,12.0,0.,12.0
1979-07-15 12:17:41.720 ,6,0,0.,12.0,0.,12.0,0.,12.0,0.,12.0
1979-07-15 12:17:53.720 ,6,0,0.,12.0,0.,12.0,0.,12.0,0.,12.0
1979-07-15 12:18:05.720 ,6,0,0.,12.0,0.,12.0,0.,12.0,0.,12.0
1979-07-15 12:18:17.720 ,6,0,0.,12.0,0.,12.0,0.,12.0,0.,12.0
1979-07-15 12:18:29.720 ,7,0,0.,12.0,0.,12.0,0.,12.0,0.,12.0
1979-07-15 12:18:41.720 ,7,0,0.,12.0,0.,12.0,0.,12.0,0.,12.0
1979-07-15 12:18:53.720 ,7,0,0.,12.0,0.,12.0,0.,12.0,0.,12.0
1979-07-15 12:19:05.720 ,7,0,0.,12.0,0.,12.0,0.,12.0,0.,12.0
1979-07-15 12:19:17.720 ,3,1,0.,12.0,0.,12.0,0.,12.0,0.,12.0
1979-07-15 12:19:29.720 ,3,1,0.,12.0,0.,12.0,0.,12.0,0.,12.0
1979-07-15 12:19:41.720 ,0,1,0.,12.0,0.,12.0,0.,12.0,0.,12.0
1979-07-15 12:19:53.720 ,0,1,0.,12.0,0.,12.0,0.,12.0,0.,12.0
1979-07-15 12:20:05.720 ,4,1,0.,12.0,0.,12.0,0.,12.0,0.,12.0
1979-07-15 12:20:17.720 ,4,1,0.,12.0,0.,12.0,0.,12.0,0.,12.0
1979-07-15 12:20:29.720 ,7,1,0.,12.0,0.,12.0,0.,12.0,0.,12.0
1979-07-15 12:20:41.720 ,7,1,0.,12.0,0.,12.0,0.,12.0,0.,12.0
1979-07-15 12:20:53.720 ,3,1,0.,12.0,0.,12.0,0.,12.0,0.,12.0
1979-07-15 12:21:05.720 ,3,1,0.,12.0,0.,12.0,0.,12.0,0.,12.0
1979-07-15 12:21:17.720 ,0,1,0.,12.0,0.,12.0,0.,12.0,0.,12.0
1979-07-15 12:21:29.720 ,0,1,0.,12.0,0.,12.0,0.,12.0,0.,12.0
1979-07-15 12:21:41.720 ,4,1,0.,12.0,0.,12.0,0.,12.0,0.,12.0
1979-07-15 12:21:53.720 ,4,1,0.,12.0,0.,12.0,0.,12.0,0.,12.0
1979-07-15 12:22:05.720 ,7,1,0.,12.0,0.,12.0,0.,12.0,0.,12.0
1979-07-15 12:22:17.720 ,7,1,0.,12.0,0.,12.0,0.,12.0,0.,12.0
1979-07-15 12:22:29.720 ,0,0,0.,12.0,0.,12.0,0.,12.0,0.,12.0
1979-07-15 12:22:41.720 ,0,0,0.,12.0,0.,12.0,0.,12.0,0.,12.0
1979-07-15 12:22:53.720 ,0,1,0.,12.0,0.,12.0,0.,12.0,0.,12.0
1979-07-15 12:23:05.720 ,0,1,0.,12.0,0.,12.0,0.,12.0,0.,12.0
1979-07-15 12:23:17.720 ,4,1,0.,12.0,0.,12.0,0.,12.0,0.,12.0
1979-07-15 12:23:29.720 ,4,1,0.,12.0,0.,12.0,0.,12.0,0.,12.0
1979-07-15 12:23:41.720 ,7,1,0.,12.0,0.,12.0,0.,12.0,0.,12.0
1979-07-15 12:23:53.720 ,7,1,0.,12.0,0.,12.0,0.,12.0,0.,12.0
1979-07-15 12:24:05.720 ,3,1,0.,12.0,0.,12.0,0.,12.0,0.,12.0
1979-07-15 12:24:17.720 ,3,1,0.,12.0,0.,12.0,0.,12.0,0.,12.0
1979-07-15 12:24:29.720 ,0,1,0.,12.0,0.,12.0,0.,12.0,0.,12.0
1979-07-15 12:24:41.720 ,0,1,0.,12.0,0.,12.0,0.,12.0,0.,12.0
1979-07-15 12:24:53.720 ,4,1,0.,12.0,0.,12.0,0.,12.0,0.,12.0
1979-07-15 12:25:05.720 ,4,1,1.,12.0,0.,12.0,0.,12.0,0.,12.0
1979-07-15 12:25:17.720 ,7,1,0.,12.0,0.,12.0,0.,12.0,0.,12.0
1979-07-15 12:25:29.720 ,7,1,0.,12.0,0.,12.0,0.,12.0,0.,12.0
1979-07-15 12:25:41.720 ,3,1,0.,12.0,0.,12.0,0.,12.0,0.,12.0
1979-07-15 12:25:53.720 ,3,1,0.,12.0,0.,12.0,0.,12.0,0.,12.0
1979-07-15 12:26:05.720 ,0,1,0.,12.0,0.,12.0,0.,12.0,0.,12.0
1979-07-15 12:26:17.720 ,0,1,0.,12.0,0.,12.0,0.,12.0,0.,12.0
1979-07-15 12:26:29.720 ,4,1,0.,12.0,0.,12.0,0.,12.0,0.,12.0
1979-07-15 12:26:41.720 ,4,1,0.,12.0,0.,12.0,0.,12.0,0.,12.0
1979-07-15 12:26:53.720 ,7,1,0.,12.0,0.,12.0,0.,12.0,0.,12.0
1979-07-15 12:27:05.720 ,7,1,0.,12.0,0.,12.0,0.,12.0,0.,12.0
1979-07-15 12:27:17.720 ,3,1,0.,12.0,0.,12.0,0.,12.0,0.,12.0
1979-07-15 12:27:29.720 ,3,1,0.,12.0,0.,12.0,0.,12.0,0.,12.0
1979-07-15 12:27:41.720 ,0,1,0.,12.0,0.,12.0,0.,12.0,0.,12.0
1979-07-15 12:27:53.720 ,0,1,0.,12.0,0.,12.0,0.,12.0,0.,12.0
1979-07-15 12:28:05.720 ,4,1,0.,12.0,0.,12.0,0.,12.0,0.,12.0
1979-07-15 12:28:17.720 ,4,1,0.,12.0,0.,12.0,0.,12.0,0.,12.0
1979-07-15 12:28:29.720 ,7,1,0.,12.0,0.,12.0,0.,12.0,0.,12.0
1979-07-15 12:28:41.720 ,7,1,0.,12.0,0.,12.0,0.,12.0,0.,12.0
1979-07-15 12:28:53.720 ,3,1,0.,12.0,0.,12.0,0.,12.0,0.,12.0
1979-07-15 12:29:05.720 ,3,1,0.,12.0,0.,12.0,0.,12.0,0.,12.0
1979-07-15 12:29:17.720 ,0,1,0.,12.0,0.,12.0,0.,12.0,0.,12.0
1979-07-15 12:29:29.720 ,0,1,0.,12.0,0.,12.0,0.,12.0,0.,12.0
1979-07-15 12:29:41.720 ,0,0,0.,12.0,0.,12.0,0.,12.0,0.,12.0
1979-07-15 12:29:53.720 ,0,0,0.,12.0,0.,12.0,0.,12.0,0.,12.0
1979-07-15 12:30:05.720 ,0,0,0.,12.0,0.,12.0,0.,12.0,0.,12.0
1979-07-15 12:30:17.720 ,0,0,0.,12.0,0.,12.0,0.,12.0,0.,12.0
1979-07-15 12:30:29.720 ,5,0,0.,12.0,0.,12.0,0.,12.0,0.,12.0
1979-07-15 12:30:41.720 ,5,0,0.,12.0,0.,12.0,0.,12.0,0.,12.0
1979-07-15 12:30:53.720 ,5,0,0.,12.0,0.,12.0,0.,12.0,0.,12.0
1979-07-15 12:31:05.720 ,5,0,0.,12.0,0.,12.0,0.,12.0,0.,12.0
1979-07-15 12:31:17.720 ,4,0,0.,12.0,0.,12.0,0.,12.0,0.,12.0
1979-07-15 12:31:29.720 ,4,0,0.,12.0,0.,12.0,0.,12.0,0.,12.0
1979-07-15 12:31:41.720 ,4,0,0.,12.0,0.,12.0,0.,12.0,0.,12.0
1979-07-15 12:31:53.720 ,4,0,0.,12.0,0.,12.0,0.,12.0,0.,12.0
1979-07-15 12:32:05.720 ,3,0,1.,12.0,0.,12.0,0.,12.0,0.,12.0
1979-07-15 12:32:17.720 ,3,0,0.,12.0,0.,12.0,0.,12.0,0.,12.0
1979-07-15 12:32:29.720 ,3,0,0.,12.0,0.,12.0,0.,12.0,0.,12.0
1979-07-15 12:32:41.720 ,3,0,0.,12.0,0.,12.0,0.,12.0,0.,12.0
1979-07-15 12:32:53.720 ,2,0,0.,12.0,0.,12.0,0.,12.0,0.,12.0
1979-07-15 12:33:05.720 ,2,0,0.,12.0,0.,12.0,0.,12.0,0.,12.0
1979-07-15 12:33:17.720 ,2,0,0.,12.0,0.,12.0,0.,12.0,0.,12.0
1979-07-15 12:33:29.720 ,2,0,0.,12.0,0.,12.0,0.,12.0,0.,12.0
1979-07-15 12:33:41.720 ,1,0,0.,12.0,0.,12.0,0.,12.0,0.,12.0
1979-07-15 12:33:53.720 ,1,0,0.,12.0,0.,12.0,0.,12.0,0.,12.0
1979-07-15 12:34:05.720 ,1,0,0.,12.0,0.,12.0,0.,12.0,0.,12.0
1979-07-15 12:34:17.720 ,1,0,1.,12.0,0.,12.0,0.,12.0,0.,12.0
1979-07-15 12:34:29.720 ,0,0,1.,12.0,0.,12.0,0.,12.0,0.,12.0
1979-07-15 12:34:41.720 ,0,0,0.,12.0,0.,12.0,0.,12.0,0.,12.0
1979-07-15 12:34:53.720 ,0,0,0.,12.0,0.,12.0,0.,12.0,0.,12.0
1979-07-15 12:35:05.720 ,0,0,0.,12.0,0.,12.0,0.,12.0,0.,12.0
1979-07-15 12:35:17.720 ,0,0,0.,12.0,0.,12.0,0.,12.0,0.,12.0
1979-07-15 12:35:29.720 ,0,0,0.,12.0,0.,12.0,0.,12.0,0.,12.0
1979-07-15 12:35:41.720 ,0,0,0.,12.0,0.,12.0,0.,12.0,0.,12.0
1979-07-15 12:35:53.720 ,0,0,0.,12.0,0.,12.0,0.,12.0,0.,12.0
1979-07-15 12:36:05.720 ,1,0,0.,12.0,0.,12.0,0.,12.0,0.,12.0
1979-07-15 12:36:17.720 ,1,0,0.,12.0,0.,12.0,0.,12.0,0.,12.0
1979-07-15 12:36:29.720 ,1,0,0.,12.0,0.,12.0,0.,12.0,0.,12.0
1979-07-15 12:36:41.720 ,1,0,0.,12.0,0.,12.0,0.,12.0,0.,12.0
1979-07-15 12:36:53.720 ,2,0,0.,12.0,0.,12.0,0.,12.0,0.,12.0
1979-07-15 12:37:05.720 ,2,0,0.,12.0,0.,12.0,0.,12.0,0.,12.0
1979-07-15 12:37:17.720 ,2,0,0.,12.0,0.,12.0,0.,12.0,0.,12.0
1979-07-15 12:37:29.720 ,2,0,0.,12.0,0.,12.0,0.,12.0,0.,12.0
1979-07-15 12:37:41.720 ,3,0,0.,12.0,0.,12.0,0.,12.0,0.,12.0
1979-07-15 12:37:53.720 ,3,0,0.,12.0,0.,12.0,0.,12.0,0.,12.0
1979-07-15 12:38:05.720 ,3,0,0.,12.0,0.,12.0,0.,12.0,0.,12.0
1979-07-15 12:38:17.720 ,3,0,0.,12.0,0.,12.0,0.,12.0,0.,12.0
1979-07-15 12:38:29.720 ,4,0,0.,12.0,0.,12.0,0.,12.0,0.,12.0
1979-07-15 12:38:41.720 ,4,0,0.,12.0,0.,12.0,0.,12.0,0.,12.0
1979-07-15 12:38:53.720 ,4,0,0.,12.0,0.,12.0,0.,12.0,0.,12.0
1979-07-15 12:39:05.720 ,4,0,0.,12.0,0.,12.0,0.,12.0,0.,12.0
1979-07-15 12:39:17.720 ,5,0,0.,12.0,0.,12.0,0.,12.0,0.,12.0
1979-07-15 12:39:29.720 ,5,0,0.,12.0,0.,12.0,0.,12.0,0.,12.0
1979-07-15 12:39:41.720 ,5,0,0.,12.0,0.,12.0,0.,12.0,0.,12.0
1979-07-15 12:39:53.720 ,5,0,0.,12.0,0.,12.0,0.,12.0,0.,12.0
1979-07-15 12:40:05.720 ,6,0,0.,12.0,0.,12.0,0.,12.0,0.,12.0
1979-07-15 12:40:17.720 ,6,0,0.,12.0,0.,12.0,0.,12.0,0.,12.0
1979-07-15 12:40:29.720 ,6,0,0.,12.0,0.,12.0,0.,12.0,0.,12.0
1979-07-15 12:40:41.720 ,6,0,0.,12.0,0.,12.0,0.,12.0,0.,12.0
1979-07-15 12:40:53.720 ,7,0,0.,12.0,0.,12.0,0.,12.0,0.,12.0
1979-07-15 12:41:05.720 ,7,0,0.,12.0,0.,12.0,0.,12.0,0.,12.0
1979-07-15 12:41:17.720 ,7,0,0.,12.0,0.,12.0,0.,12.0,0.,12.0
1979-07-15 12:41:29.720 ,7,0,0.,12.0,0.,12.0,0.,12.0,0.,12.0
1979-07-15 12:41:41.720 ,7,0,0.,12.0,0.,12.0,0.,12.0,0.,12.0
1979-07-15 12:41:53.720 ,7,0,0.,12.0,0.,12.0,0.,12.0,0.,12.0
1979-07-15 12:42:05.720 ,7,0,0.,12.0,0.,12.0,0.,12.0,0.,12.0
1979-07-15 12:42:17.720 ,7,0,0.,12.0,0.,12.0,0.,12.0,0.,12.0
1979-07-15 12:42:29.720 ,6,0,0.,12.0,0.,12.0,0.,12.0,0.,12.0
1979-07-15 12:42:41.720 ,6,0,0.,12.0,0.,12.0,0.,12.0,0.,12.0
1979-07-15 12:42:53.720 ,6,0,0.,12.0,0.,12.0,0.,12.0,0.,12.0
1979-07-15 12:43:05.720 ,6,0,0.,12.0,0.,12.0,0.,12.0,0.,12.0
1979-07-15 12:43:17.720 ,5,0,0.,12.0,0.,12.0,0.,12.0,0.,12.0
1979-07-15 12:43:29.720 ,5,0,0.,12.0,0.,12.0,0.,12.0,0.,12.0
1979-07-15 12:43:41.720 ,5,0,0.,12.0,0.,12.0,0.,12.0,0.,12.0
1979-07-15 12:43:53.720 ,5,0,0.,12.0,0.,12.0,0.,12.0,0.,12.0
1979-07-15 12:44:05.720 ,4,0,0.,12.0,0.,12.0,0.,12.0,0.,12.0
1979-07-15 12:44:17.720 ,4,0,0.,12.0,0.,12.0,0.,12.0,0.,12.0
1979-07-15 12:44:29.720 ,4,0,0.,12.0,0.,12.0,0.,12.0,0.,12.0
1979-07-15 12:44:41.720 ,4,0,0.,12.0,0.,12.0,0.,12.0,0.,12.0
1979-07-15 12:44:53.720 ,3,0,0.,12.0,0.,12.0,0.,12.0,0.,12.0
1979-07-15 12:45:05.720 ,3,0,0.,12.0,0.,12.0,0.,12.0,0.,12.0
1979-07-15 12:45:17.720 ,3,0,0.,12.0,0.,12.0,0.,12.0,0.,12.0
1979-07-15 12:45:29.720 ,3,0,0.,12.0,0.,12.0,0.,12.0,0.,12.0
1979-07-15 12:45:41.720 ,2,0,0.,12.0,0.,12.0,0.,12.0,0.,12.0
1979-07-15 12:45:53.720 ,2,0,0.,12.0,0.,12.0,0.,12.0,0.,12.0
1979-07-15 12:46:05.720 ,2,0,0.,12.0,0.,12.0,0.,12.0,0.,12.0
1979-07-15 12:46:17.720 ,2,0,0.,12.0,0.,12.0,0.,12.0,0.,12.0
1979-07-15 12:46:29.720 ,1,0,0.,12.0,0.,12.0,0.,12.0,0.,12.0
1979-07-15 12:46:41.720 ,1,0,0.,12.0,0.,12.0,0.,12.0,0.,12.0
1979-07-15 12:46:53.720 ,1,0,0.,12.0,0.,12.0,0.,12.0,0.,12.0
1979-07-15 12:47:05.720 ,1,0,0.,12.0,0.,12.0,0.,12.0,0.,12.0
1979-07-15 12:47:17.720 ,0,0,0.,12.0,0.,12.0,0.,12.0,0.,12.0
1979-07-15 12:47:29.720 ,0,0,0.,12.0,0.,12.0,0.,12.0,0.,12.0
1979-07-15 12:47:41.720 ,0,0,0.,12.0,0.,12.0,0.,12.0,0.,12.0
1979-07-15 12:47:53.720 ,0,0,0.,12.0,0.,12.0,0.,12.0,0.,12.0
1979-07-15 12:48:05.720 ,0,0,0.,12.0,0.,12.0,0.,12.0,0.,12.0
1979-07-15 12:48:17.720 ,0,0,0.,12.0,0.,12.0,0.,12.0,0.,12.0
1979-07-15 12:48:29.720 ,0,0,0.,12.0,0.,12.0,0.,12.0,0.,12.0
1979-07-15 12:48:41.720 ,0,0,0.,12.0,0.,12.0,0.,12.0,0.,12.0
1979-07-15 12:48:53.720 ,1,0,0.,12.0,0.,12.0,0.,12.0,0.,12.0
1979-07-15 12:49:05.720 ,1,0,0.,12.0,0.,12.0,0.,12.0,0.,12.0
1979-07-15 12:49:17.720 ,1,0,0.,12.0,0.,12.0,0.,12.0,0.,12.0
1979-07-15 12:49:29.720 ,1,0,0.,12.0,0.,12.0,0.,12.0,0.,12.0
1979-07-15 12:49:41.720 ,2,0,0.,12.0,0.,12.0,0.,12.0,0.,12.0
1979-07-15 12:49:53.720 ,2,0,0.,12.0,0.,12.0,0.,12.0,0.,12.0
1979-07-15 12:50:05.720 ,2,0,0.,12.0,0.,12.0,0.,12.0,0.,12.0
1979-07-15 12:50:17.720 ,2,0,0.,12.0,0.,12.0,0.,12.0,0.,12.0
1979-07-15 12:50:29.720 ,3,0,0.,12.0,0.,12.0,0.,12.0,0.,12.0
1979-07-15 12:50:41.720 ,3,0,0.,12.0,0.,12.0,0.,12.0,0.,12.0
1979-07-15 12:50:53.720 ,3,0,0.,12.0,0.,12.0,0.,12.0,0.,12.0
1979-07-15 12:51:05.720 ,3,0,0.,12.0,0.,12.0,0.,12.0,0.,12.0
1979-07-15 12:51:17.720 ,4,0,0.,12.0,0.,12.0,0.,12.0,0.,12.0
1979-07-15 12:51:29.720 ,4,0,0.,12.0,0.,12.0,0.,12.0,0.,12.0
1979-07-15 12:51:41.720 ,4,0,0.,12.0,0.,12.0,0.,12.0,0.,12.0
1979-07-15 12:51:53.720 ,4,0,0.,12.0,0.,12.0,0.,12.0,0.,12.0
1979-07-15 12:52:05.720 ,5,0,0.,12.0,0.,12.0,0.,12.0,0.,12.0
1979-07-15 12:52:17.720 ,5,0,0.,12.0,0.,12.0,0.,12.0,0.,12.0
1979-07-15 12:52:29.720 ,5,0,0.,12.0,0.,12.0,0.,12.0,0.,12.0
1979-07-15 12:52:41.720 ,5,0,0.,12.0,0.,12.0,0.,12.0,0.,12.0
1979-07-15 12:52:53.720 ,6,0,0.,12.0,0.,12.0,0.,12.0,0.,12.0
1979-07-15 12:53:05.720 ,6,0,0.,12.0,0.,12.0,0.,12.0,0.,12.0
1979-07-15 12:53:17.720 ,6,0,0.,12.0,0.,12.0,0.,12.0,0.,12.0
1979-07-15 12:53:29.720 ,6,0,0.,12.0,0.,12.0,0.,12.0,0.,12.0
1979-07-15 12:53:41.720 ,7,0,0.,12.0,0.,12.0,0.,12.0,0.,12.0
1979-07-15 12:53:53.720 ,7,0,0.,12.0,0.,12.0,0.,12.0,0.,12.0
1979-07-15 12:54:05.720 ,7,0,0.,12.0,0.,12.0,0.,12.0,0.,12.0
1979-07-15 12:54:17.720 ,7,0,0.,12.0,0.,12.0,0.,12.0,0.,12.0
1979-07-15 12:54:29.720 ,7,0,0.,12.0,0.,12.0,0.,12.0,0.,12.0
1979-07-15 12:54:41.720 ,7,0,0.,12.0,0.,12.0,0.,12.0,0.,12.0
1979-07-15 12:54:53.720 ,7,0,0.,12.0,0.,12.0,0.,12.0,0.,12.0
1979-07-15 12:55:05.720 ,7,0,0.,12.0,0.,12.0,0.,12.0,0.,12.0
1979-07-15 12:55:17.720 ,6,0,0.,12.0,0.,12.0,0.,12.0,0.,12.0
1979-07-15 12:55:29.720 ,6,0,1.,12.0,0.,12.0,0.,12.0,0.,12.0
1979-07-15 12:55:41.720 ,6,0,0.,12.0,0.,12.0,0.,12.0,1.,12.0
1979-07-15 12:55:53.720 ,6,0,0.,12.0,0.,12.0,0.,12.0,0.,12.0
1979-07-15 12:56:05.720 ,5,0,0.,12.0,0.,12.0,0.,12.0,0.,12.0
1979-07-15 12:56:17.720 ,5,0,0.,12.0,0.,12.0,0.,12.0,0.,12.0
1979-07-15 12:56:29.720 ,5,0,0.,12.0,0.,12.0,0.,12.0,0.,12.0
1979-07-15 12:56:41.720 ,5,0,0.,12.0,0.,12.0,0.,12.0,0.,12.0
1979-07-15 12:56:53.720 ,4,0,0.,12.0,0.,12.0,0.,12.0,0.,12.0
1979-07-15 12:57:05.720 ,4,0,0.,12.0,0.,12.0,0.,12.0,0.,12.0
1979-07-15 12:57:17.720 ,4,0,0.,12.0,0.,12.0,0.,12.0,0.,12.0
1979-07-15 12:57:29.720 ,4,0,0.,12.0,0.,12.0,0.,12.0,0.,12.0
1979-07-15 12:57:41.720 ,3,0,0.,12.0,0.,12.0,0.,12.0,0.,12.0
1979-07-15 12:57:53.720 ,3,0,0.,12.0,0.,12.0,0.,12.0,0.,12.0
1979-07-15 12:58:05.720 ,3,0,0.,12.0,0.,12.0,0.,12.0,0.,12.0
1979-07-15 12:58:17.720 ,3,0,0.,12.0,0.,12.0,0.,12.0,0.,12.0
1979-07-15 12:58:29.720 ,2,0,0.,12.0,0.,12.0,0.,12.0,0.,12.0
1979-07-15 12:58:41.720 ,2,0,0.,12.0,0.,12.0,0.,12.0,0.,12.0
1979-07-15 12:58:53.720 ,2,0,0.,12.0,0.,12.0,0.,12.0,0.,12.0
1979-07-15 12:59:05.720 ,2,0,0.,12.0,0.,12.0,0.,12.0,0.,12.0
1979-07-15 12:59:17.720 ,1,0,0.,12.0,0.,12.0,0.,12.0,0.,12.0
1979-07-15 12:59:29.720 ,1,0,0.,12.0,0.,12.0,0.,12.0,0.,12.0
1979-07-15 12:59:41.720 ,1,0,0.,12.0,0.,12.0,0.,12.0,0.,12.0
1979-07-15 12:59:53.720 ,1,0,0.,12.0,0.,12.0,0.,12.0,0.,12.0
1979-07-15 13:00:05.720 ,0,0,0.,12.0,0.,12.0,0.,12.0,0.,12.0
1979-07-15 13:00:17.720 ,0,0,0.,12.0,0.,12.0,0.,12.0,0.,12.0
1979-07-15 13:00:29.720 ,0,0,0.,12.0,0.,12.0,0.,12.0,0.,12.0
1979-07-15 13:00:41.720 ,0,0,0.,12.0,0.,12.0,0.,12.0,0.,12.0
1979-07-15 13:00:53.720 ,0,0,0.,12.0,0.,12.0,0.,12.0,0.,12.0
1979-07-15 13:01:05.720 ,0,0,0.,12.0,0.,12.0,0.,12.0,0.,12.0
1979-07-15 13:01:17.720 ,0,0,0.,12.0,0.,12.0,0.,12.0,0.,12.0
1979-07-15 13:01:29.720 ,0,0,0.,12.0,0.,12.0,0.,12.0,0.,12.0
1979-07-15 13:01:41.720 ,1,0,0.,12.0,0.,12.0,0.,12.0,0.,12.0
1979-07-15 13:01:53.720 ,1,0,0.,12.0,0.,12.0,0.,12.0,0.,12.0
1979-07-15 13:02:05.720 ,1,0,0.,12.0,0.,12.0,0.,12.0,0.,12.0
1979-07-15 13:02:17.720 ,1,0,0.,12.0,0.,12.0,0.,12.0,0.,12.0
1979-07-15 13:02:29.720 ,2,0,0.,12.0,0.,12.0,0.,12.0,0.,12.0
1979-07-15 13:02:41.720 ,2,0,0.,12.0,0.,12.0,0.,12.0,0.,12.0
1979-07-15 13:02:53.720 ,0,0,0.,12.0,0.,12.0,0.,12.0,0.,12.0
1979-07-15 13:03:05.720 ,0,0,0.,12.0,0.,12.0,0.,12.0,0.,12.0
1979-07-15 13:03:27.320 ,0,0,,0,,0,,0,,0
1979-07-15 13:03:39.320 ,0,0,0.,12.0,0.,12.0,0.,12.0,0.,12.0
1979-07-15 13:03:41.720 ,0,0,0.,12.0,0.,12.0,0.,12.0,0.,12.0
1979-07-15 13:03:53.720 ,0,0,0.,12.0,0.,12.0,0.,12.0,0.,12.0
1979-07-15 13:04:05.720 ,4,0,0.,12.0,0.,12.0,0.,12.0,0.,12.0
1979-07-15 13:04:17.720 ,4,0,0.,12.0,0.,12.0,0.,12.0,0.,12.0
1979-07-15 13:04:29.720 ,4,0,0.,12.0,0.,12.0,0.,12.0,0.,12.0
1979-07-15 13:04:41.720 ,4,0,0.,12.0,0.,12.0,0.,12.0,0.,12.0
1979-07-15 13:04:53.720 ,5,0,0.,12.0,0.,12.0,0.,12.0,0.,12.0
1979-07-15 13:05:05.720 ,5,0,0.,12.0,0.,12.0,0.,12.0,0.,12.0
1979-07-15 13:05:17.720 ,5,0,0.,12.0,0.,12.0,0.,12.0,0.,12.0
1979-07-15 13:05:29.720 ,5,0,0.,12.0,0.,12.0,0.,12.0,0.,12.0
1979-07-15 13:05:41.720 ,6,0,0.,12.0,0.,12.0,0.,12.0,0.,12.0
1979-07-15 13:05:53.720 ,6,0,0.,12.0,0.,12.0,0.,12.0,0.,12.0
1979-07-15 13:06:05.720 ,6,0,0.,12.0,0.,12.0,0.,12.0,0.,12.0
1979-07-15 13:06:17.720 ,6,0,0.,12.0,0.,12.0,0.,12.0,0.,12.0
1979-07-15 13:06:29.720 ,7,0,0.,12.0,0.,12.0,0.,12.0,0.,12.0
1979-07-15 13:06:41.720 ,7,0,0.,12.0,0.,12.0,0.,12.0,0.,12.0
1979-07-15 13:06:53.720 ,7,0,0.,12.0,0.,12.0,0.,12.0,0.,12.0
1979-07-15 13:07:05.720 ,7,0,0.,12.0,0.,12.0,0.,12.0,0.,12.0
1979-07-15 13:07:17.720 ,3,1,0.,12.0,0.,12.0,0.,12.0,0.,12.0
1979-07-15 13:07:29.720 ,3,1,0.,12.0,0.,12.0,0.,12.0,0.,12.0
1979-07-15 13:07:41.720 ,0,1,0.,12.0,0.,12.0,0.,12.0,0.,12.0
1979-07-15 13:07:53.720 ,0,1,0.,12.0,0.,12.0,0.,12.0,0.,12.0
1979-07-15 13:08:05.720 ,4,1,0.,12.0,0.,12.0,0.,12.0,0.,12.0
1979-07-15 13:08:17.720 ,4,1,0.,12.0,0.,12.0,0.,12.0,0.,12.0
1979-07-15 13:08:29.720 ,7,1,0.,12.0,0.,12.0,0.,12.0,0.,12.0
1979-07-15 13:08:41.720 ,7,1,0.,12.0,0.,12.0,0.,12.0,0.,12.0
1979-07-15 13:08:53.720 ,3,1,0.,12.0,0.,12.0,0.,12.0,0.,12.0
1979-07-15 13:09:05.720 ,3,1,0.,12.0,0.,12.0,0.,12.0,0.,12.0
1979-07-15 13:09:17.720 ,0,1,0.,12.0,0.,12.0,0.,12.0,0.,12.0
1979-07-15 13:09:29.720 ,0,1,0.,12.0,0.,12.0,0.,12.0,0.,12.0
1979-07-15 13:09:41.720 ,4,1,0.,12.0,0.,12.0,0.,12.0,0.,12.0
1979-07-15 13:09:53.720 ,4,1,0.,12.0,0.,12.0,0.,12.0,0.,12.0
1979-07-15 13:10:05.720 ,7,1,0.,12.0,0.,12.0,0.,12.0,0.,12.0
1979-07-15 13:10:17.720 ,7,1,0.,12.0,0.,12.0,0.,12.0,0.,12.0
1979-07-15 13:10:29.720 ,3,1,0.,12.0,0.,12.0,0.,12.0,0.,12.0
1979-07-15 13:10:41.720 ,3,1,0.,12.0,0.,12.0,0.,12.0,0.,12.0
1979-07-15 13:10:53.720 ,0,1,0.,12.0,0.,12.0,0.,12.0,0.,12.0
1979-07-15 13:11:05.720 ,0,1,0.,12.0,0.,12.0,0.,12.0,0.,12.0
1979-07-15 13:11:17.720 ,4,1,0.,12.0,0.,12.0,0.,12.0,0.,12.0
1979-07-15 13:11:29.720 ,4,1,0.,12.0,0.,12.0,0.,12.0,0.,12.0
1979-07-15 13:11:41.720 ,7,1,0.,12.0,0.,12.0,0.,12.0,0.,12.0
1979-07-15 13:11:53.720 ,7,1,0.,12.0,0.,12.0,0.,12.0,0.,12.0
1979-07-15 13:12:05.720 ,3,1,0.,12.0,0.,12.0,0.,12.0,0.,12.0
1979-07-15 13:12:17.720 ,3,1,0.,12.0,0.,12.0,0.,12.0,0.,12.0
1979-07-15 13:12:29.720 ,0,1,0.,12.0,0.,12.0,0.,12.0,0.,12.0
1979-07-15 13:12:41.720 ,0,1,0.,12.0,0.,12.0,0.,12.0,0.,12.0
1979-07-15 13:12:53.720 ,4,1,0.,12.0,0.,12.0,0.,12.0,0.,12.0
1979-07-15 13:13:05.720 ,4,1,0.,12.0,0.,12.0,0.,12.0,0.,12.0
1979-07-15 13:13:17.720 ,7,1,0.,12.0,0.,12.0,0.,12.0,0.,12.0
1979-07-15 13:13:29.720 ,7,1,0.,12.0,0.,12.0,0.,12.0,0.,12.0
1979-07-15 13:13:41.720 ,3,1,0.,12.0,0.,12.0,0.,12.0,0.,12.0
1979-07-15 13:13:53.720 ,3,1,0.,12.0,0.,12.0,0.,12.0,0.,12.0
1979-07-15 13:14:05.720 ,0,1,0.,12.0,0.,12.0,0.,12.0,0.,12.0
1979-07-15 13:14:17.720 ,0,1,0.,12.0,0.,12.0,0.,12.0,0.,12.0
1979-07-15 13:14:30.920 ,4,1,0.,12.0,0.,12.0,0.,12.0,0.,12.0
1979-07-15 13:14:42.920 ,4,1,0.,12.0,0.,12.0,0.,12.0,0.,12.0
1979-07-15 13:14:53.720 ,7,1,0.,12.0,0.,12.0,0.,12.0,0.,12.0
1979-07-15 13:15:05.720 ,7,1,0.,12.0,0.,12.0,0.,12.0,0.,12.0
1979-07-15 13:15:17.720 ,3,1,0.,12.0,0.,12.0,0.,12.0,0.,12.0
1979-07-15 13:15:29.720 ,3,1,0.,12.0,0.,12.0,0.,12.0,0.,12.0
1979-07-15 13:15:41.720 ,0,1,0.,12.0,0.,12.0,0.,12.0,0.,12.0
1979-07-15 13:15:53.720 ,0,1,0.,12.0,0.,12.0,0.,12.0,0.,12.0
1979-07-15 13:16:05.720 ,4,1,0.,12.0,0.,12.0,0.,12.0,0.,12.0
1979-07-15 13:16:17.720 ,4,1,0.,12.0,0.,12.0,0.,12.0,0.,12.0
1979-07-15 13:16:29.720 ,7,1,0.,12.0,0.,12.0,0.,12.0,0.,12.0
1979-07-15 13:16:41.720 ,7,1,0.,12.0,0.,12.0,0.,12.0,0.,12.0
1979-07-15 13:16:53.720 ,3,1,0.,12.0,0.,12.0,0.,12.0,0.,12.0
1979-07-15 13:17:05.720 ,3,1,0.,12.0,0.,12.0,0.,12.0,0.,12.0